[[{"header":{"parameterUnit":"m.s-1","parameterCategory":1,"la1":30.2992,"la2":30.254,"lo1":-89.0895,"lo2":-89.0443,"dy":0.0025,"dx":0.0025,"nx":19,"ny":19,"refTime":"2026-04-01T03:00:00:Z","depth":0,"parameterNumber":2,"parameterNumberName":"U-component_of_WINDS"},"data":[0,0,0,-4.0967,-4.0967,-4.0939,-4.0938,-4.0933,-4.0934,0,0,0,0,0,0,0,0,0,0,0,-4.0993,-4.0993,-4.0967,-4.0967,-4.0939,-4.0938,-4.0933,-4.0934,0,0,0,0,0,0,0,0,0,0,0,-4.0993,-4.0993,-4.0994,-4.0967,-4.0939,-4.0938,-4.0933,-4.0944,0,0,0,0,0,0,0,0,0,0,-4.0965,-4.1007,-4.0993,-4.0994,-4.0966,-4.0939,-4.0938,-4.0944,-4.0943,-4.0959,0,-4.0977,0,-4.0956,-4.0935,-4.0935,0,0,0,-4.0953,-4.1007,-4.0984,-4.0994,-4.0966,-4.0939,-4.0947,-4.0943,-4.0942,-4.0959,-4.0977,-4.0976,-4.0956,-4.0935,-4.0936,-4.1071,-4.1072,0,0,-4.0955,-4.0997,-4.0984,-4.0984,-4.099,-4.0948,-4.0947,-4.0942,-4.0965,-4.0977,-4.0975,-4.0956,-4.0936,-4.0936,-4.107,-4.1071,0,0,0,-4.0968,-4.0999,-4.0975,-4.0985,-4.0978,-4.0948,-4.0946,-4.0965,-4.0954,-4.0975,-4.0956,-4.0936,-4.0936,-4.1068,-4.107,-4.1172,0,0,0,-4.0968,-4.1007,-4.0976,-4.1002,-4.0979,-4.0971,-4.097,-4.0954,-4.0952,-4.0956,-4.0936,-4.0936,-4.1067,-4.1069,-4.1166,-4.1212,0,0,0,-4.0989,-4.1009,-4.1011,-4.1004,-4.0994,-4.097,-4.0958,-4.0953,-4.0941,-4.0935,-4.0936,-4.1066,-4.1069,-4.1161,-4.1203,-4.1258,0,0,0,-4.1022,-4.1102,-4.1013,-4.1095,-4.0994,-4.1034,-4.0958,-4.0985,-4.0992,-4.0936,-4.1067,-4.107,-4.1159,-4.1198,-4.1253,-4.131,-4.1339,0,0,-4.1146,-4.1119,-4.1163,-4.1083,-4.1149,-4.1035,-4.1116,-4.1083,-4.1044,-4.1065,-4.1067,-4.1168,-4.1202,-4.1257,-4.149,-4.1513,0,0,0,-4.1217,-4.125,-4.1258,-4.1267,-4.1244,-4.1227,-4.1178,-4.1166,-4.1181,-4.1063,-4.1203,-4.1222,-4.1253,-4.1278,-4.1297,-4.132,-4.1085,-4.1084,-4.1084,-4.1452,-4.1398,-4.1469,-4.1412,-4.1423,-4.1371,-4.1374,-4.1349,-4.1292,-4.1327,-4.1331,-4.1478,-4.151,-4.1524,-4.1549,-4.136,-4.136,-4.136,-4.1361,-4.1626,-4.1663,-4.1587,-4.1628,-4.1572,-4.1606,-4.1561,-4.152,-4.1543,-4.1471,-4.1494,-4.1417,-4.1551,-4.1569,-4.1368,-4.1366,-4.1366,-4.1365,-4.1364,-4.1771,-4.1779,-4.1764,-4.1772,-4.1785,-4.1726,-4.1753,-4.1701,-4.1653,-4.1677,-4.1675,-4.1673,-4.1663,-4.1681,-4.1681,-4.1682,-4.1682,-4.1682,-4.1683,-4.1926,-4.1906,-4.1933,-4.1918,-4.1917,-4.191,-4.1862,-4.186,-4.1844,-4.1805,-4.1804,-4.1744,-4.1575,-4.1532,-4.169,-4.1689,-4.1688,-4.1687,-4.1687,-4.2117,-4.2066,-4.2109,-4.2109,-4.2086,-4.2102,-4.2038,-4.2039,-4.203,-4.2045,-4.1981,-4.1866,-4.1833,-4.1817,-4.1781,-4.1993,-4.1993,-4.1993,-4.1993,-4.2237,-4.2217,-4.2249,-4.2252,-4.2249,-4.2196,-4.2247,-4.2211,-4.2166,-4.2158,-4.2121,-4.207,-4.2056,-4.2031,-4.2011,-4.1976,-4.2233,-4.2233,-4.2234,-4.2351,-4.2328,-4.238,-4.2335,-4.2315,-4.2299,-4.2345,-4.2352,-4.2291,-4.2242,-4.215,-4.214,-4.2057,-4.2033,-4.1978,-4.1948,-4.1883,0,0]},{"header":{"parameterUnit":"m.s-1","parameterCategory":1,"la1":30.2992,"la2":30.254,"lo1":-89.0895,"lo2":-89.0443,"dy":0.0025,"dx":0.0025,"nx":19,"ny":19,"refTime":"2026-04-01T03:00:00:Z","depth":0,"parameterNumber":3,"parameterNumberName":"V-component_of_WINDS"},"data":[0,0,0,2.2159,2.216,2.2226,2.2226,2.2283,2.2283,0,0,0,0,0,0,0,0,0,0,0,2.2125,2.2124,2.2159,2.2161,2.2226,2.2226,2.2283,2.2283,0,0,0,0,0,0,0,0,0,0,0,2.2125,2.2125,2.2124,2.2161,2.2225,2.2226,2.2283,2.2243,0,0,0,0,0,0,0,0,0,0,2.2184,2.2137,2.2125,2.2124,2.2161,2.2225,2.2226,2.2242,2.2246,2.2243,0,2.2236,0,2.226,2.2286,2.2286,0,0,0,2.2172,2.2134,2.2165,2.2124,2.2161,2.2225,2.2199,2.2244,2.2249,2.2248,2.2237,2.224,2.2261,2.2286,2.2286,2.2232,2.2231,0,0,2.2168,2.2128,2.2162,2.2167,2.2156,2.2197,2.2201,2.2247,2.2233,2.2237,2.2242,2.2262,2.2286,2.2286,2.2233,2.2232,0,0,0,2.215,2.2125,2.2156,2.2164,2.2178,2.2199,2.2204,2.2231,2.2245,2.2243,2.2263,2.2286,2.2287,2.2234,2.2232,2.2155,0,0,0,2.2149,2.2114,2.2154,2.213,2.2177,2.2205,2.2185,2.2241,2.2248,2.2263,2.2286,2.2287,2.2235,2.2233,2.2159,2.2126,0,0,0,2.2126,2.2112,2.2116,2.2127,2.2154,2.2206,2.2222,2.2244,2.226,2.2286,2.2287,2.2235,2.2233,2.2163,2.2132,2.2101,0,0,0,2.2089,2.2045,2.2114,2.2073,2.2153,2.2157,2.2222,2.2227,2.224,2.2286,2.2234,2.2232,2.2164,2.2136,2.2105,2.2069,2.205,0,0,2.2011,2.2035,2.2014,2.2077,2.2059,2.215,2.2121,2.2171,2.2209,2.2222,2.2221,2.2158,2.2132,2.2102,2.1954,2.1938,0,0,0,2.1975,2.196,2.1964,2.1975,2.2012,2.2042,2.2101,2.2119,2.2132,2.2208,2.2139,2.2125,2.2109,2.2093,2.208,2.207,2.2223,2.2223,2.2224,2.1808,2.1861,2.183,2.1891,2.19,2.1962,2.1975,2.2011,2.206,2.2043,2.2048,2.1951,2.1932,2.1923,2.1911,2.2032,2.2031,2.2031,2.2031,2.17,2.1688,2.1756,2.1751,2.1806,2.1803,2.186,2.1895,2.19,2.1952,2.1941,2.1994,2.1904,2.1897,2.2026,2.2027,2.2027,2.2028,2.2028,2.1598,2.1602,2.1625,2.1647,2.1658,2.172,2.1722,2.1772,2.182,2.1808,2.1819,2.1821,2.183,2.1809,2.1809,2.1809,2.1809,2.1808,2.1808,2.1484,2.1513,2.1509,2.1545,2.1559,2.1584,2.1644,2.166,2.1689,2.1726,2.1726,2.1778,2.1885,2.1911,2.1803,2.1804,2.1805,2.1805,2.1806,2.1359,2.1396,2.1389,2.1402,2.1449,2.1457,2.1521,2.1547,2.1567,2.1566,2.1621,2.1691,2.1718,2.1729,2.1751,2.1609,2.1609,2.1609,2.1609,2.1275,2.1293,2.1298,2.1317,2.1342,2.1399,2.139,2.1436,2.149,2.1505,2.1533,2.1566,2.1575,2.1597,2.1611,2.1633,2.1463,2.1463,2.1463,2.1202,2.1225,2.1208,2.1261,2.1301,2.1334,2.1328,2.1347,2.1415,2.1458,2.1519,2.1525,2.158,2.1594,2.164,2.1661,2.1702,0,0]}]]